Weather observations for the past three days for
Canefield Airport
| Date | Time (ast) | Wind (mph) | Vis. (mi.) | Weather | Sky Cond. | Temperature (ºF) | Relative Humidity | Wind Chill (°F) | Heat Index (°F) | Pressure | Precipitation (in) | ||||||
|---|---|---|---|---|---|---|---|---|---|---|---|---|---|---|---|---|---|
| Air | Dwpt | 6 hour | altimeter (in) | sea level (mb) | 1 hr | 3 hr | 6 hr | ||||||||||
| Max. | Min. | ||||||||||||||||
| 06 | 16:00 | W 1 | 0.00 | Partly Cloudy | SCT020 | 91.4 | 75.2 | 59% | 103 | 0 | 0.0 | ||||||
| 06 | 15:00 | SW 3 | 0.00 | Partly Cloudy | SCT022 | 91.4 | 75.2 | 59% | 103 | 0 | 0.0 | ||||||
| 06 | 14:00 | SE 8 | 0.00 | Partly Cloudy | SCT018 | 89.6 | 71.6 | 55% | 96 | 0 | 0.0 | ||||||
| 06 | 13:00 | SW 1 | 0.00 | Partly Cloudy | SCT018 | 87.8 | 78.8 | 75% | 102 | 0 | 0.0 | ||||||
| 06 | 12:00 | NW 2 | 0.00 | Mostly Cloudy | BKN020 | 87.8 | 77 | 70% | 100 | 0 | 0.0 | ||||||
| 06 | 11:00 | NW 6 | 0.00 | Partly Cloudy | SCT020 | 84.2 | 75.2 | 74% | 92 | 0 | 0.0 | ||||||
| 06 | 10:00 | S 5 | 0.00 | A Few Clouds | FEW024 | 89.6 | 77 | 67% | 103 | 0 | 0.0 | ||||||
| 06 | 09:00 | E 7 | 0.00 | A Few Clouds | FEW022 | 84.2 | 73.4 | 70% | 91 | 0 | 0.0 | ||||||
| 06 | 08:00 | SW 1 | 0.00 | A Few Clouds | FEW022 | 86 | 77 | 75% | 97 | 0 | 0.0 | ||||||
| 05 | 16:00 | SE 8 | 0.00 | A Few Clouds | FEW017 | 86 | 75.2 | 70% | 95 | 0 | 0.0 | ||||||
| 05 | 15:00 | E 9 | 0.00 | A Few Clouds | FEW017 | 87.8 | 75.2 | 66% | 98 | 0 | 0.0 | ||||||
| 05 | 14:00 | SE 7 | 0.00 | A Few Clouds | FEW018 | 87.8 | 73.4 | 62% | 96 | 0 | 0.0 | ||||||
| 05 | 13:00 | SE 10 | 0.00 | A Few Clouds | FEW019 | 87.8 | 73.4 | 62% | 96 | 0 | 0.0 | ||||||
| 05 | 12:00 | SE 8 | 0.00 | A Few Clouds | FEW017 | 87.8 | 75.2 | 66% | 98 | 0 | 0.0 | ||||||
| 05 | 11:00 | SE 7 | 0.00 | Light Showers Rain | SCT017 | 84.2 | 73.4 | 70% | 91 | 0 | 0.0 | ||||||
| 05 | 10:00 | N 3 | 0.00 | A Few Clouds | FEW017 | 84.2 | 73.4 | 70% | 91 | 0 | 0.0 | ||||||
| 05 | 09:00 | NW 2 | 0.00 | Partly Cloudy | SCT017 | 82.4 | 75.2 | 79% | 89 | 0 | 0.0 | ||||||
| 05 | 08:00 | SE 5 | 0.00 | Light Showers Rain | BKN017 | 78.8 | 75.2 | 89% | 82 | 0 | 0.0 | ||||||
| 04 | 16:00 | SE 5 | 0.00 | A Few Clouds | FEW024 | 86 | 69.8 | 59% | 91 | 0 | 0.0 | ||||||
| 04 | 15:00 | SE 5 | 0.00 | A Few Clouds | FEW021 | 84.2 | 73.4 | 70% | 91 | 0 | 0.0 | ||||||
| 04 | 14:00 | S 7 | 0.00 | Mostly Cloudy | FEW022 BKN034 | 86 | 69.8 | 59% | 91 | 0 | 0.0 | ||||||
| 04 | 13:00 | SE 6 | 0.00 | Partly Cloudy | FEW024 SCT034 | 86 | 71.6 | 62% | 92 | 0 | 0.0 | ||||||
| 04 | 12:00 | S 6 G 18 | 0.00 | Partly Cloudy | SCT023 | 87.8 | 71.6 | 59% | 94 | 0 | 0.0 | ||||||
| 04 | 11:00 | S 6 G 17 | 0.00 | Partly Cloudy | SCT023 | 87.8 | 71.6 | 59% | 94 | 0 | 0.0 | ||||||
| 04 | 10:00 | SE 12 G 28 | 0.00 | Partly Cloudy | SCT023 | 86 | 69.8 | 59% | 91 | 0 | 0.0 | ||||||
| 04 | 09:00 | E 6 | 0.00 | A Few Clouds | FEW021 | 86 | 71.6 | 62% | 92 | 0 | 0.0 | ||||||
| 04 | 08:00 | SE 8 | 0.00 | Mostly Cloudy | BKN019 | 80.6 | 71.6 | 74% | 85 | 0 | 0.0 | ||||||
| Date | Time (ast) | Wind (mph) | Vis. (mi.) | Weather | Sky Cond. | Air | Dwpt | Max. | Min. | Relative Humidity | Wind Chill (°F) | Heat Index (°F) | altimeter (in) | sea level (mb) | 1 hr | 3 hr | 6 hr |
| 6 hour | |||||||||||||||||
| Temperature (ºF) | Pressure | Precipitation (in) | |||||||||||||||